Location: Austin
(30.3000°N, 97.7500°W)
Time: 08:01:23
(UTC-05:00)

Aureole 1 Rocket - Pass Details

Date: 19 September 2023
Orbit: 379 x 1299 km, 73.9° (Epoch: 25 September)

Event Time Altitude Azimuth Distance (km) Brightness Sun altitude
Exits shadow 04:51:11 68° 313° (NW) 1,313 4.4 -31.6°
Drops below altitude 10° 04:57:53 10° 10° (N) 2,971 6.9 -30.2°
Sets 05:00:22 0° 13° (NNE) 3,820 7.5 -29.7°
